FW0115 Weather Reports


Display with metric or nautical units.
time (UTC)temp
F
wind
direction
speed
MPH
gust
MPH
rain 1hr
in
rain 24hr
in
rain mn
in
humidity
%
barometer
mb
20210226073402 28 270 3.0 3.0 0.00 0.00 0.00 98 997.3
20210226072311 29 338 2.0 4.0 0.00 0.00 0.00 98 997.3
20210226071202 29 293 4.0 4.0 0.00 0.00 0.00 98 997.3
20210226070121 29 293 2.0 4.0 0.00 0.00 0.00 98 997.3
20210226065902 29 315 2.0 4.0 0.00 0.00 0.00 98 997.3
20210226064804 28 293 2.0 3.0 0.00 0.00 0.00 98 997.0
20210226063706 28 315 2.0 2.0 0.00 0.00 0.00 96 997.0
20210226062656 28 338 2.0 3.0 0.00 0.00 0.00 96 997.0
20210226061407 28 270 1.0 2.0 0.00 0.00 0.00 96 997.0
20210226060307 28 270 2.0 2.0 0.00 0.00 0.00 96 996.6
20210226055338 29 270 0.0 1.0 0.00 0.00 0.00 96 996.6
20210226054204 29 270 1.0 2.0 0.00 0.00 0.00 96 996.6
20210226053020 30 270 1.0 3.0 0.00 0.00 0.00 96 997.0
20210226051905 30 293 4.0 5.0 0.00 0.00 0.00 96 996.6
20210226050802 30 270 0.0 2.0 0.00 0.00 0.00 95 996.6
20210226045703 31 293 0.0 2.0 0.00 0.00 0.00 93 996.6
20210226044606 31 338 1.0 5.0 0.00 0.00 0.00 93 996.3
20210226043516 31 293 5.0 7.0 0.00 0.00 0.00 91 996.3
20210226042620 32 315 4.0 7.0 0.00 0.00 0.00 88 996.3
20210226041407 32 270 6.0 6.0 0.00 0.00 0.00 83 995.9
20210226040403 32 248 2.0 4.0 0.00 0.00 0.00 83 995.9
20210226035306 33 293 3.0 6.0 0.00 0.00 0.00 81 995.9
20210226034204 34 293 4.0 6.0 0.00 0.00 0.00 80 995.6
20210226033108 34 293 3.0 5.0 0.00 0.00 0.00 80 995.9
20210226032025 34 270 4.0 5.0 0.00 0.00 0.00 80 995.6
20210226030902 34 270 5.0 7.0 0.00 0.00 0.00 81 995.6
20210226025804 33 293 9.0 9.0 0.00 0.00 0.00 81 995.9
20210226024705 32 270 2.0 3.0 0.00 0.00 0.00 85 995.6
20210226023604 31 293 1.0 2.0 0.00 0.00 0.00 83 995.9
20210226022308 31 270 1.0 1.0 0.00 0.00 0.00 83 995.3
20210226021302 31 270 0.0 0.0 0.00 0.00 0.00 83 995.3
20210226020105 32 293 1.0 2.0 0.00 0.00 0.00 80 995.3
20210226015146 33 270 1.0 2.0 0.00 0.00 0.00 79 995.3
20210226013912 35 293 2.0 5.0 0.00 0.00 0.00 75 995.3
20210226012919 35 315 5.0 12.0 0.00 0.00 0.00 75 995.3
20210226011703 36 270 5.0 6.0 0.00 0.00 0.00 70 995.3
20210226010609 36 293 4.0 7.0 0.00 0.00 0.00 69 995.3
20210226005517 35 270 2.0 3.0 0.00 0.00 0.00 71 995.3
20210226004405 36 293 2.0 3.0 0.00 0.00 0.00 70 995.3
20210226003306 37 270 2.0 2.0 0.00 0.00 0.00 68 994.9
20210226002202 38 270 2.0 2.0 0.00 0.00 0.00 65 994.9
20210226001022 39 293 2.0 3.0 0.00 0.00 0.00 63 994.9
20210225235904 40 315 3.0 5.0 0.00 0.00 0.00 61 994.9
20210225234702 39 293 2.0 2.0 0.00 0.00 0.00 63 995.3
20210225233610 39 293 1.0 3.0 0.00 0.00 0.00 63 995.3
20210225232713 39 270 1.0 2.0 0.00 0.00 0.00 63 994.9
20210225231104 40 293 1.0 3.0 0.00 0.00 0.00 61 994.9
20210225230024 41 270 2.0 6.0 0.00 0.00 0.00 56 994.9
20210225225026 43 270 3.0 5.0 0.00 0.00 0.00 53 994.9
20210225223903 43 270 3.0 6.0 0.00 0.00 0.00 53 994.9
20210225223138 44 270 3.0 4.0 0.00 0.00 0.00 54 994.9
20210225221812 44 315 3.0 4.0 0.00 0.00 0.00 54 994.9
20210225220807 43 225 4.0 6.0 0.00 0.00 0.00 53 994.9
20210225215703 41 293 3.0 5.0 0.00 0.00 0.00 56 994.9
20210225214604 41 293 7.0 7.0 0.00 0.00 0.00 55 994.9
20210225213523 42 270 3.0 9.0 0.00 0.00 0.00 54 994.9
20210225212407 43 270 5.0 9.0 0.00 0.00 0.00 50 995.3
20210225211302 45 270 5.0 12.0 0.00 0.00 0.00 49 995.3
20210225210103 44 270 10.0 10.0 0.00 0.00 0.00 50 995.3
20210225205025 43 270 7.0 9.0 0.00 0.00 0.00 50 995.3
20210225204044 43 270 5.0 7.0 0.00 0.00 0.00 55 995.3
20210225203041 42 270 4.0 9.0 0.00 0.00 0.00 54 995.3
20210225201805 42 248 7.0 7.0 0.00 0.00 0.00 54 995.9
20210225200703 41 270 7.0 10.0 0.00 0.00 0.00 55 995.9
20210225195519 41 270 8.0 9.0 0.00 0.00 0.00 54 995.9
20210225194410 41 270 6.0 9.0 0.00 0.00 0.00 55 995.9
20210225193210 40 270 5.0 9.0 0.00 0.00 0.00 55 996.3
20210225192205 40 248 8.0 10.0 0.00 0.00 0.00 56 996.3
20210225191106 39 270 13.0 13.0 0.00 0.00 0.00 56 996.6
20210225190020 38 225 11.0 15.0 0.00 0.00 0.00 58 996.6
20210225184903 38 248 11.0 13.0 0.00 0.00 0.00 60 996.3
20210225183805 37 248 9.0 11.0 0.00 0.00 0.00 61 996.6
20210225183022 36 203 10.0 16.0 0.00 0.00 0.00 61 996.6
20210225181705 35 225 10.0 13.0 0.00 0.00 0.00 65 996.6
20210225180604 34 270 8.0 16.0 0.00 0.00 0.00 69 997.0
20210225175602 33 270 12.0 13.0 0.00 0.00 0.00 71 997.0
20210225174519 32 225 10.0 12.0 0.00 0.00 0.00 73 997.0
20210225173402 31 225 9.0 10.0 0.00 0.00 0.00 75 997.3
20210225172304 31 270 6.0 9.0 0.00 0.00 0.00 80 997.6
20210225171203 30 203 4.0 7.0 0.00 0.00 0.00 86 997.6
20210225170104 30 203 7.0 7.0 0.00 0.00 0.00 88 998.0
20210225165033 31 135 5.0 5.0 0.00 0.00 0.00 88 998.0
20210225163905 30 203 3.0 7.0 0.00 0.00 0.00 93 998.0
20210225162912 29 203 3.0 4.0 0.00 0.00 0.00 96 998.3
20210225161705 27 68 1.0 2.0 0.00 0.00 0.00 93 998.3
20210225160517 26 180 2.0 2.0 0.00 0.00 0.00 93 998.3
20210225155305 25 158 1.0 1.0 0.00 0.00 0.00 95 998.6
20210225154023 25 68 0.0 1.0 0.00 0.00 0.00 96 998.6
20210225152928 25 180 2.0 2.0 0.00 0.00 0.00 96 999.0
20210225100804 20 158 2.0 4.0 0.00 0.00 0.00 76 1005.1
20210225095704 20 113 2.0 4.0 0.00 0.00 0.00 78 1005.1
20210225094705 20 135 2.0 4.0 0.00 0.00 0.00 78 1005.4
20210225093607 19 135 3.0 4.0 0.00 0.00 0.00 78 1006.1
20210225092305 20 158 3.0 5.0 0.00 0.00 0.00 76 1006.4
20210225091103 20 135 3.0 4.0 0.00 0.00 0.00 76 1006.8
20210225090112 19 135 2.0 4.0 0.00 0.00 0.00 78 1007.1
20210225085023 20 113 2.0 3.0 0.00 0.00 0.00 75 1007.5
20210225083906 19 158 2.0 4.0 0.00 0.00 0.00 76 1007.5
20210225083007 19 158 4.0 4.0 0.00 0.00 0.00 78 1008.1
20210225081706 18 113 2.0 2.0 0.00 0.00 0.00 79 1008.5
20210225080605 19 113 4.0 4.0 0.00 0.00 0.00 76 1008.8
20210225075609 20 158 3.0 5.0 0.00 0.00 0.00 73 1009.1
20210225074511 18 158 1.0 2.0 0.00 0.00 0.00 81 1009.1